Time,TemperatureF,DewpointF,PressureIn,WindDirection,WindDirectionDegrees,WindSpeedMPH,WindSpeedGustMPH,Humidity,HourlyPrecipIn,Conditions,Clouds,dailyrainin,SoftwareType,DateUTC
2013-07-14 00:02:00,73.0,71.0,29.98,South,179,0.0,0.0,95,0.00,,,0.20,,2013-07-14 04:02:00,
2013-07-14 00:11:00,73.0,71.0,29.98,SE,135,3.0,0.0,95,0.00,,,0.20,,2013-07-14 04:11:00,
2013-07-14 00:22:00,73.0,71.0,29.98,SE,131,1.0,2.0,95,0.10,,,0.50,,2013-07-14 04:22:00,
2013-07-14 00:32:00,73.0,71.0,29.99,SSE,158,0.0,0.0,95,0.10,,,0.50,,2013-07-14 04:32:00,
2013-07-14 00:42:00,73.0,71.0,29.98,SE,142,0.0,0.0,95,0.10,,,0.50,,2013-07-14 04:42:00,
2013-07-14 00:53:00,73.0,71.0,29.99,SSE,158,1.0,1.0,95,0.10,,,0.50,,2013-07-14 04:53:00,
2013-07-14 01:02:00,73.0,71.0,29.99,South,172,0.0,1.0,95,0.10,,,0.50,,2013-07-14 05:02:00,
2013-07-14 01:11:00,73.0,71.0,29.98,ESE,107,1.0,0.0,95,0.10,,,0.50,,2013-07-14 05:11:00,
2013-07-14 01:23:00,73.0,71.0,29.98,ESE,107,1.0,0.0,95,0.10,,,0.50,,2013-07-14 05:23:00,
2013-07-14 01:32:00,74.0,72.0,29.99,East,86,0.0,0.0,95,0.00,,,0.50,,2013-07-14 05:32:00,
2013-07-14 01:43:00,74.0,72.0,29.98,East,86,0.0,0.0,95,0.00,,,0.50,,2013-07-14 05:43:00,
2013-07-14 01:53:00,74.0,72.0,29.98,East,86,0.0,0.0,95,0.00,,,0.50,,2013-07-14 05:53:00,
2013-07-14 02:01:00,74.0,72.0,29.98,South,174,3.0,3.0,95,0.00,,,0.50,,2013-07-14 06:01:00,
2013-07-14 02:11:00,75.0,73.0,29.98,SE,124,3.0,7.0,93,0.00,,,0.50,,2013-07-14 06:11:00,
2013-07-14 02:22:00,76.0,74.0,29.98,South,172,3.0,4.0,92,0.00,,,0.50,,2013-07-14 06:22:00,
2013-07-14 02:32:00,76.0,73.0,29.98,SSE,160,3.0,3.0,91,0.00,,,0.50,,2013-07-14 06:32:00,
2013-07-14 02:42:00,77.0,74.0,29.98,SE,139,1.0,4.0,91,0.00,,,0.50,,2013-07-14 06:42:00,
2013-07-14 02:53:00,77.0,74.0,29.98,South,179,3.0,7.0,91,0.00,,,0.50,,2013-07-14 06:53:00,
2013-07-14 03:02:00,77.0,74.0,29.98,ESE,108,4.0,4.0,90,0.00,,,0.50,,2013-07-14 07:02:00,
2013-07-14 03:12:00,77.0,74.0,29.98,SE,127,4.0,4.0,89,0.00,,,0.50,,2013-07-14 07:12:00,
2013-07-14 03:22:00,77.0,74.0,29.98,South,177,3.0,6.0,89,0.00,,,0.50,,2013-07-14 07:22:00,
2013-07-14 03:33:00,77.0,74.0,29.98,SE,146,5.0,5.0,90,0.00,,,0.50,,2013-07-14 07:33:00,
2013-07-14 03:43:00,77.0,74.0,29.97,South,169,5.0,5.0,89,0.00,,,0.50,,2013-07-14 07:43:00,
2013-07-14 03:53:00,77.0,73.0,29.97,SSE,166,4.0,4.0,88,0.00,,,0.50,,2013-07-14 07:53:00,
2013-07-14 04:01:00,77.0,73.0,29.97,South,191,4.0,4.0,88,0.00,,,0.50,,2013-07-14 08:01:00,
2013-07-14 04:11:00,77.0,73.0,29.96,SSW,207,4.0,5.0,88,0.00,,,0.50,,2013-07-14 08:11:00,
2013-07-14 04:22:00,78.0,74.0,29.97,SSW,208,3.0,3.0,88,0.00,,,0.50,,2013-07-14 08:22:00,
2013-07-14 04:32:00,77.0,73.0,29.97,SSW,204,1.0,2.0,88,0.00,,,0.50,,2013-07-14 08:32:00,
2013-07-14 04:42:00,77.0,74.0,29.97,SSW,208,0.0,0.0,89,0.00,,,0.50,,2013-07-14 08:42:00,
2013-07-14 04:53:00,77.0,74.0,29.96,SW,214,3.0,3.0,89,0.00,,,0.50,,2013-07-14 08:53:00,
2013-07-14 05:01:00,77.0,74.0,29.96,South,169,1.0,2.0,89,0.00,,,0.50,,2013-07-14 09:01:00,
2013-07-14 05:11:00,77.0,74.0,29.96,SSE,153,0.0,0.0,89,0.00,,,0.50,,2013-07-14 09:11:00,
2013-07-14 05:22:00,77.0,74.0,29.96,SSW,210,0.0,2.0,89,0.00,,,0.50,,2013-07-14 09:22:00,
2013-07-14 05:32:00,77.0,74.0,29.96,South,180,0.0,0.0,89,0.00,,,0.50,,2013-07-14 09:32:00,
2013-07-14 05:42:00,77.0,74.0,29.96,South,174,0.0,0.0,89,0.00,,,0.50,,2013-07-14 09:42:00,
2013-07-14 05:52:00,77.0,74.0,29.96,SSW,204,2.0,2.0,89,0.00,,,0.50,,2013-07-14 09:52:00,
2013-07-14 06:01:00,76.0,73.0,29.97,SW,217,5.0,5.0,90,0.00,,,0.50,,2013-07-14 10:01:00,
2013-07-14 06:12:00,76.0,73.0,29.97,SW,221,3.0,3.0,90,0.00,,,0.50,,2013-07-14 10:12:00,
2013-07-14 06:22:00,77.0,74.0,29.97,SW,217,5.0,5.0,90,0.00,,,0.50,,2013-07-14 10:22:00,
2013-07-14 06:32:00,76.0,73.0,29.97,ESE,110,0.0,0.0,90,0.00,,,0.50,,2013-07-14 10:32:00,
2013-07-14 06:42:00,76.0,73.0,29.97,SSW,197,2.0,4.0,90,0.00,,,0.50,,2013-07-14 10:42:00,
2013-07-14 06:53:00,76.0,73.0,29.97,SSW,198,4.0,4.0,91,0.00,,,0.50,,2013-07-14 10:53:00,
2013-07-14 07:02:00,76.0,73.0,29.97,SSW,195,3.0,3.0,90,0.00,,,0.50,,2013-07-14 11:02:00,
2013-07-14 07:11:00,76.0,73.0,29.98,South,179,1.0,3.0,90,0.00,,,0.50,,2013-07-14 11:11:00,
2013-07-14 07:22:00,76.0,73.0,29.98,SSW,208,2.0,2.0,90,0.00,,,0.50,,2013-07-14 11:22:00,
2013-07-14 07:32:00,76.0,73.0,29.98,South,191,3.0,3.0,90,0.00,,,0.50,,2013-07-14 11:32:00,
2013-07-14 07:43:00,76.0,73.0,29.98,South,183,1.0,3.0,90,0.00,,,0.50,,2013-07-14 11:43:00,
2013-07-14 07:53:00,76.0,73.0,29.98,SSW,200,3.0,3.0,90,0.00,,,0.50,,2013-07-14 11:53:00,
2013-07-14 08:02:00,77.0,74.0,29.99,SW,214,2.0,2.0,89,0.00,,,0.50,,2013-07-14 12:02:00,
2013-07-14 08:11:00,77.0,74.0,30.00,SE,135,0.0,3.0,89,0.00,,,0.50,,2013-07-14 12:11:00,
2013-07-14 08:22:00,77.0,73.0,30.00,South,173,1.0,1.0,88,0.00,,,0.50,,2013-07-14 12:22:00,
2013-07-14 08:33:00,78.0,74.0,30.00,SW,231,1.0,2.0,88,0.00,,,0.50,,2013-07-14 12:33:00,
2013-07-14 08:52:00,78.0,73.0,30.01,SW,221,3.0,3.0,86,0.00,,,0.50,,2013-07-14 12:52:00,
2013-07-14 09:01:00,79.0,74.0,30.01,SW,218,5.0,5.0,84,0.00,,,0.50,,2013-07-14 13:01:00,
2013-07-14 09:11:00,80.0,75.0,30.01,SSW,193,4.0,4.0,84,0.00,,,0.50,,2013-07-14 13:11:00,
2013-07-14 09:22:00,80.0,74.0,30.01,SSW,194,4.0,4.0,83,0.00,,,0.50,,2013-07-14 13:22:00,
2013-07-14 09:32:00,80.0,74.0,30.02,SW,219,4.0,5.0,82,0.00,,,0.50,,2013-07-14 13:32:00,
2013-07-14 09:42:00,80.0,73.0,30.02,SW,229,5.0,5.0,80,0.00,,,0.50,,2013-07-14 13:42:00,
2013-07-14 09:53:00,80.0,73.0,30.02,SW,224,3.0,3.0,80,0.00,,,0.50,,2013-07-14 13:53:00,
2013-07-14 10:02:00,80.0,73.0,30.02,WSW,243,3.0,4.0,80,0.00,,,0.50,,2013-07-14 14:02:00,
2013-07-14 10:11:00,81.0,73.0,30.02,SW,217,4.0,4.0,78,0.00,,,0.50,,2013-07-14 14:11:00,
2013-07-14 10:23:00,81.0,73.0,30.02,SSW,210,2.0,2.0,78,0.00,,,0.50,,2013-07-14 14:23:00,
2013-07-14 10:33:00,83.0,74.0,30.02,SE,136,4.0,4.0,74,0.00,,,0.50,,2013-07-14 14:33:00,
2013-07-14 10:43:00,84.0,74.0,30.02,SE,134,2.0,2.0,71,0.00,,,0.50,,2013-07-14 14:43:00,
2013-07-14 10:53:00,84.0,74.0,30.03,SSW,200,4.0,4.0,71,0.00,,,0.50,,2013-07-14 14:53:00,
2013-07-14 11:01:00,84.0,72.0,30.02,SSW,193,4.0,6.0,67,0.00,,,0.50,,2013-07-14 15:01:00,
2013-07-14 11:12:00,85.0,73.0,30.03,SE,125,4.0,4.0,68,0.00,,,0.50,,2013-07-14 15:12:00,
2013-07-14 11:22:00,85.0,72.0,30.03,SE,131,5.0,5.0,66,0.00,,,0.50,,2013-07-14 15:22:00,
2013-07-14 11:32:00,86.0,73.0,30.03,South,186,6.0,6.0,65,0.00,,,0.50,,2013-07-14 15:32:00,
2013-07-14 11:42:00,86.0,71.0,30.03,SW,214,6.0,6.0,62,0.00,,,0.50,,2013-07-14 15:42:00,
2013-07-14 11:53:00,87.0,72.0,30.03,South,188,4.0,4.0,62,0.00,,,0.50,,2013-07-14 15:53:00,
2013-07-14 12:01:00,86.0,70.0,30.04,SSW,207,4.0,5.0,59,0.00,,,0.50,,2013-07-14 16:01:00,
2013-07-14 12:11:00,86.0,71.0,30.04,South,191,5.0,6.0,61,0.00,,,0.50,,2013-07-14 16:11:00,
2013-07-14 12:22:00,86.0,70.0,30.05,South,191,4.0,6.0,60,0.00,,,0.50,,2013-07-14 16:22:00,
2013-07-14 12:32:00,86.0,71.0,30.05,SE,142,6.0,6.0,62,0.00,,,0.50,,2013-07-14 16:32:00,
2013-07-14 12:43:00,86.0,71.0,30.05,SSW,201,5.0,5.0,61,0.00,,,0.50,,2013-07-14 16:43:00,
2013-07-14 12:53:00,86.0,72.0,30.04,SE,129,6.0,6.0,63,0.00,,,0.50,,2013-07-14 16:53:00,
2013-07-14 13:02:00,87.0,71.0,30.04,SE,136,6.0,6.0,59,0.00,,,0.50,,2013-07-14 17:02:00,
2013-07-14 13:11:00,87.0,71.0,30.04,SSE,153,8.0,8.0,59,0.00,,,0.50,,2013-07-14 17:11:00,
2013-07-14 13:22:00,87.0,71.0,30.04,ESE,107,6.0,13.0,60,0.00,,,0.50,,2013-07-14 17:22:00,
2013-07-14 13:32:00,87.0,71.0,30.05,SE,124,7.0,9.0,60,0.00,,,0.50,,2013-07-14 17:32:00,
2013-07-14 13:43:00,87.0,71.0,30.04,SE,129,5.0,9.0,60,0.00,,,0.50,,2013-07-14 17:43:00,
2013-07-14 13:53:00,87.0,71.0,30.04,SSE,158,6.0,8.0,59,0.00,,,0.50,,2013-07-14 17:53:00,
2013-07-14 14:01:00,87.0,72.0,30.04,SW,225,7.0,7.0,61,0.00,,,0.50,,2013-07-14 18:01:00,
2013-07-14 14:11:00,87.0,71.0,30.04,East,96,6.0,6.0,60,0.00,,,0.50,,2013-07-14 18:11:00,
2013-07-14 14:22:00,87.0,71.0,30.04,SSE,150,7.0,9.0,60,0.00,,,0.50,,2013-07-14 18:22:00,
2013-07-14 14:32:00,86.0,70.0,30.03,SSE,153,7.0,7.0,60,0.00,,,0.50,,2013-07-14 18:32:00,
2013-07-14 14:42:00,86.0,71.0,30.03,ENE,65,8.0,8.0,62,0.00,,,0.50,,2013-07-14 18:42:00,
2013-07-14 14:52:00,87.0,71.0,30.03,SSE,149,8.0,8.0,59,0.00,,,0.50,,2013-07-14 18:52:00,
2013-07-14 15:01:00,86.0,74.0,30.03,ESE,113,8.0,8.0,68,0.00,,,0.50,,2013-07-14 19:01:00,
2013-07-14 15:12:00,86.0,74.0,30.03,NE,35,10.0,10.0,67,0.00,,,0.50,,2013-07-14 19:12:00,
2013-07-14 15:22:00,86.0,73.0,30.03,East,98,6.0,6.0,66,0.00,,,0.50,,2013-07-14 19:22:00,
2013-07-14 15:32:00,86.0,73.0,30.03,East,98,6.0,6.0,66,0.00,,,0.50,,2013-07-14 19:32:00,
2013-07-14 15:43:00,86.0,73.0,30.02,SE,124,7.0,7.0,66,0.00,,,0.50,,2013-07-14 19:43:00,
2013-07-14 15:53:00,86.0,73.0,30.01,East,79,6.0,7.0,65,0.00,,,0.50,,2013-07-14 19:53:00,
2013-07-14 16:02:00,85.0,74.0,30.02,SE,132,8.0,9.0,70,0.00,,,0.50,,2013-07-14 20:02:00,
2013-07-14 16:11:00,83.0,75.0,30.02,ESE,122,8.0,8.0,76,0.00,,,0.50,,2013-07-14 20:11:00,
2013-07-14 16:22:00,83.0,74.0,30.02,East,91,8.0,8.0,75,0.00,,,0.50,,2013-07-14 20:22:00,
2013-07-14 16:32:00,83.0,74.0,30.02,ENE,69,8.0,8.0,75,0.00,,,0.50,,2013-07-14 20:32:00,
2013-07-14 16:43:00,82.0,72.0,30.03,East,100,5.0,6.0,72,0.00,,,0.50,,2013-07-14 20:43:00,
2013-07-14 16:53:00,83.0,73.0,30.02,SE,134,7.0,7.0,73,0.00,,,0.50,,2013-07-14 20:53:00,
2013-07-14 17:02:00,82.0,74.0,30.02,SE,128,6.0,6.0,76,0.00,,,0.50,,2013-07-14 21:02:00,
2013-07-14 17:11:00,82.0,72.0,30.03,ESE,108,6.0,6.0,73,0.00,,,0.50,,2013-07-14 21:11:00,
2013-07-14 17:22:00,82.0,73.0,30.03,North,7,4.0,4.0,75,0.00,,,0.50,,2013-07-14 21:22:00,
2013-07-14 17:32:00,82.0,73.0,30.03,SE,129,2.0,3.0,75,0.00,,,0.50,,2013-07-14 21:32:00,
2013-07-14 17:43:00,82.0,74.0,30.03,NNE,13,3.0,3.0,77,0.00,,,0.50,,2013-07-14 21:43:00,
2013-07-14 17:52:00,83.0,75.0,30.03,NNE,27,1.0,0.0,76,0.00,,,0.50,,2013-07-14 21:52:00,
2013-07-14 18:01:00,82.0,74.0,30.03,NNE,24,3.0,3.0,77,0.00,,,0.50,,2013-07-14 22:01:00,
2013-07-14 18:11:00,81.0,74.0,30.04,NNE,25,1.0,1.0,80,0.10,,,0.50,,2013-07-14 22:11:00,
2013-07-14 18:22:00,81.0,74.0,30.04,NNE,13,0.0,0.0,80,0.10,,,0.50,,2013-07-14 22:22:00,
2013-07-14 18:32:00,80.0,74.0,30.04,NNW,339,1.0,2.0,82,0.10,,,0.50,,2013-07-14 22:32:00,
2013-07-14 18:42:00,79.0,74.0,30.04,NW,308,3.0,3.0,86,0.10,,,0.50,,2013-07-14 22:42:00,
2013-07-14 18:53:00,77.0,74.0,30.04,NE,35,4.0,4.0,89,0.10,,,0.50,,2013-07-14 22:53:00,
2013-07-14 19:01:00,76.0,73.0,30.04,NW,325,4.0,7.0,91,0.10,,,0.50,,2013-07-14 23:01:00,
2013-07-14 19:11:00,75.0,73.0,30.04,NW,319,7.0,7.0,92,0.50,,,0.50,,2013-07-14 23:11:00,
2013-07-14 19:22:00,75.0,73.0,30.04,WNW,297,4.0,4.0,92,0.50,,,0.50,,2013-07-14 23:22:00,
2013-07-14 19:32:00,74.0,72.0,30.04,WNW,283,4.0,5.0,93,0.50,,,0.50,,2013-07-14 23:32:00,
2013-07-14 19:42:00,74.0,72.0,30.05,SW,231,4.0,4.0,93,0.50,,,0.50,,2013-07-14 23:42:00,
2013-07-14 19:53:00,73.0,71.0,30.06,SW,229,4.0,7.0,94,0.50,,,0.50,,2013-07-14 23:53:00,
2013-07-14 20:02:00,73.0,71.0,30.05,WSW,249,6.0,6.0,93,0.50,,,0.50,,2013-07-15 00:02:00,
2013-07-14 20:11:00,73.0,71.0,30.06,West,277,5.0,5.0,93,0.40,,,0.50,,2013-07-15 00:11:00,
2013-07-14 20:22:00,73.0,71.0,30.06,SW,225,2.0,0.0,93,0.40,,,0.50,,2013-07-15 00:22:00,
2013-07-14 20:32:00,73.0,71.0,30.06,West,269,2.0,3.0,93,0.40,,,0.50,,2013-07-15 00:32:00,
2013-07-14 20:43:00,72.0,70.0,30.06,West,267,5.0,7.0,94,0.40,,,0.50,,2013-07-15 00:43:00,
2013-07-14 20:53:00,73.0,71.0,30.05,WSW,240,2.0,0.0,94,0.40,,,0.50,,2013-07-15 00:53:00,
2013-07-14 21:01:00,73.0,71.0,30.05,SW,236,4.0,4.0,94,0.40,,,0.50,,2013-07-15 01:01:00,
2013-07-14 21:11:00,73.0,71.0,30.04,WNW,288,2.0,3.0,94,0.40,,,0.50,,2013-07-15 01:11:00,
2013-07-14 21:22:00,73.0,71.0,30.04,West,270,2.0,3.0,95,0.30,,,0.50,,2013-07-15 01:22:00,
2013-07-14 21:32:00,73.0,71.0,30.04,West,276,3.0,3.0,95,0.30,,,0.50,,2013-07-15 01:32:00,
2013-07-14 21:43:00,73.0,71.0,30.04,West,259,2.0,2.0,95,0.30,,,0.50,,2013-07-15 01:43:00,
2013-07-14 21:53:00,73.0,71.0,30.04,WSW,249,3.0,3.0,95,0.30,,,0.50,,2013-07-15 01:53:00,
2013-07-14 22:02:00,73.0,71.0,30.04,WSW,255,0.0,0.0,95,0.30,,,0.50,,2013-07-15 02:02:00,
2013-07-14 22:11:00,73.0,71.0,30.04,WSW,255,0.0,0.0,95,0.00,,,0.50,,2013-07-15 02:11:00,
2013-07-14 22:22:00,73.0,71.0,30.05,WSW,255,0.0,0.0,95,0.00,,,0.50,,2013-07-15 02:22:00,
2013-07-14 22:32:00,73.0,71.0,30.05,NNE,15,0.0,0.0,95,0.00,,,0.50,,2013-07-15 02:32:00,
2013-07-14 22:42:00,73.0,71.0,30.05,NNE,15,0.0,0.0,95,0.00,,,0.50,,2013-07-15 02:42:00,
2013-07-14 22:53:00,73.0,71.0,30.05,North,6,0.0,0.0,95,0.00,,,0.50,,2013-07-15 02:53:00,
2013-07-14 23:02:00,73.0,71.0,30.06,North,6,0.0,0.0,95,0.00,,,0.50,,2013-07-15 03:02:00,
2013-07-14 23:11:00,74.0,72.0,30.06,NNE,30,3.0,3.0,92,0.00,,,0.50,,2013-07-15 03:11:00,
2013-07-14 23:22:00,74.0,72.0,30.06,NNE,31,2.0,5.0,93,0.00,,,0.50,,2013-07-15 03:22:00,
2013-07-14 23:32:00,74.0,72.0,30.06,NE,41,3.0,5.0,94,0.00,,,0.50,,2013-07-15 03:32:00,
2013-07-14 23:43:00,74.0,72.0,30.06,ENE,65,4.0,4.0,94,0.00,,,0.50,,2013-07-15 03:43:00,
2013-07-14 23:53:00,75.0,72.0,30.06,ENE,58,3.0,4.0,91,0.00,,,0.50,,2013-07-15 03:53:00,